STARLINK-34322, 64702

Orbit data source: Space-Track

STARLINK-34322, 64702 is a payload satellite owned by SpaceX/Seattle (US) in LEO that was launched on Sat, 28 Jun 2025 UTC via an FALCON 9 launch vehicle from the Air Force Western Test Range (AFWTR). Payload-class satellites include a variety of spacecraft equipped with specific instruments for various scientific and technological missions. These include communications satellites like Starlink; space stations such as the ISS; scientific satellites like the Hubble; Earth observation satellites from companies like Planet Labs, Umbra, and HawkEye 360; GPS; miniature CubeSats for education and research; and military/defense satellites.

Loading next visibility...
Identifier
64702, 2025-142G
Orbit
LEO
Country
Flag of USUS
Related business
Manufacturer
SpaceX/Seattle
Mission
Operational Commercial Communications
Bus & Motor
STARLINK V2MO, Unknown motor
Mass
575 kg wet, ~530 kg dry
Launch date (UTC)
2025-06-28 (1 year ago)
Launch vehicle
FALCON 9
Launch site
Air Force Western Test Range (AFWTR)
Object type
Payload
Rocket body
Debris
Shape & HBR
Box + 2 Pan, 17.7 m
Radar Cross Section
36.964 m², Large (>1 m²)

Expand to show TLE details & history
Last TLE update: 6 hours ago

TLE from 6 hours ago
0 STARLINK-34322
1 64702U 25142G   26207.62098520  .00006618  00000-0  56177-3 0  9992
2 64702  70.0036 324.0424 0003127 269.1801  90.9000 14.98341014 60454
Epoch: 2026-07-26T14:54Z
TLE epoch observation values (Epoch: 2026-07-26T14:54:13.121Z)
Latitude
0.00001°
Longitude
156.17144°
Altitude
574.481 km
Speed
7.574 km/s
True Right ascension
21h 36m 10s
True Declination
0° 00' 00"
Sunlit
Object was in full shadow at epoch
Visualization orbit readout
Latitude
Unknown
Longitude
Unknown
Altitude
Unknown
Speed
Unknown
Apparent Right ascension
Unknown
Apparent Declination
Unknown
Sunlit
N/A
Visualization observer readout
Local Sidereal Time
09:49:25
Azimuth
Unknown
Elevation
Unknown
Doppler factor
Unknown
Orbital elements
Apogee altitude
572.142 km
Perigee altitude
567.797 km
Semi-major axis
6,948.107 km
Eccentricity
0.00031
Inclination
70.0036°
RAAN
324.0424°
Arg. of periapsis
269.1801°
True anomaly
90.93583°
Mean anomaly
90.9°
Eccentric anomaly
90.91791°
Mean motion
3.74752 °/min
Orbital period
96.06 mins
BSTAR
0.00056177
Loading maneuver chart data...
Computing Atmospheric mass density...
Loading historical data...
Loading historical data...
Loading historical data...
Loading historical data...
Loading historical data...
Loading historical data...
Loading historical data...

Documentation

Showing up to 5 results
|